[[{"header":{"parameterUnit":"m.s-1","parameterCategory":1,"la1":30.2991,"la2":30.254,"lo1":-89.0895,"lo2":-89.0444,"dy":0.0017,"dx":0.0017,"nx":28,"ny":28,"refTime":"2024-04-08T03:00:00:Z","depth":0,"parameterNumber":2,"parameterNumberName":"U-component_of_WINDS"},"data":[0,0,0,0,0,0,0,0,0,0,0,0,0,0,0,0,0,0,0,0,0,0,0,0,0,0,0,0,0,0,0,0,0,0,0,0,0,0,0,0,0,0,0,0,0,0,0,0,0,0,0,0,0,0,0,0,0,0,-6.3367,-6.3368,0,-6.3471,-6.3473,-6.3474,-6.3458,-6.3457,-6.3455,-6.3453,-6.3556,-6.356,-6.3564,0,0,0,0,0,0,0,0,0,0,0,0,0,-6.315,-6.3154,-6.3367,-6.3368,-6.3369,-6.3471,-6.3473,-6.3474,-6.3459,-6.3457,-6.3454,-6.3452,-6.3554,-6.3559,-6.3565,0,0,0,0,0,0,0,0,0,0,0,0,0,-6.3248,-6.3156,-6.3366,-6.3374,-6.3376,-6.3471,-6.3473,-6.3474,-6.3459,-6.3456,-6.3454,-6.3451,-6.3553,-6.3559,-6.3565,-6.3658,0,0,-6.3585,-6.3588,0,0,0,0,0,0,0,0,-6.3243,-6.3256,-6.3372,-6.3374,-6.3376,-6.3449,-6.3434,-6.3536,-6.346,-6.3427,-6.3453,-6.345,-6.3522,-6.3531,-6.3556,-6.3663,-6.3667,-6.3586,-6.359,-6.3593,-6.3595,0,0,0,0,0,0,0,-6.3236,-6.3252,-6.3408,-6.3373,-6.3376,-6.3371,-6.3382,-6.3453,-6.3488,-6.343,-6.3429,-6.3442,-6.3523,-6.355,-6.3559,-6.3669,-6.3586,-6.3592,-6.3596,-6.3598,-6.3857,-6.386,0,0,0,0,0,0,-6.3228,-6.3246,-6.3405,-6.3411,-6.3302,-6.3377,-6.339,-6.3428,-6.3487,-6.3494,-6.3444,-6.3441,-6.354,-6.3551,-6.3562,-6.3673,-6.3593,-6.3599,-6.3603,-6.3854,-6.3858,-6.3861,0,0,0,0,0,0,-6.3223,-6.3242,-6.34,-6.3329,-6.3348,-6.3384,-6.3427,-6.3432,-6.3459,-6.3498,-6.3504,-6.3466,-6.3538,-6.3553,-6.3635,-6.3677,-6.3602,-6.3608,-6.3851,-6.3855,-6.3859,-6.3897,0,0,0,0,0,0,-6.3217,-6.324,-6.3277,-6.333,-6.3352,-6.3472,-6.343,-6.3436,-6.3471,-6.3467,-6.352,-6.3526,-6.3538,-6.3625,-6.3641,-6.3684,-6.3613,-6.3847,-6.3853,-6.3858,-6.3892,-6.3902,-6.3911,0,0,0,0,0,-6.3209,-6.3282,-6.3278,-6.3298,-6.3398,-6.3475,-6.3487,-6.3501,-6.3474,-6.351,-6.3536,-6.3524,-6.3671,-6.3634,-6.3652,-6.3697,-6.3844,-6.3851,-6.3857,-6.3888,-6.39,-6.3911,0,0,0,0,0,0,-6.3231,-6.3289,-6.3285,-6.3378,-6.3422,-6.3472,-6.3517,-6.3513,-6.3564,-6.3559,-6.3572,-6.3584,-6.3666,-6.3691,-6.3648,-6.379,-6.3753,-6.3764,-6.3771,-6.3783,-6.3792,-6.3782,-6.3618,0,0,0,0,0,-6.3247,-6.3305,-6.3353,-6.343,-6.3452,-6.3481,-6.3515,-6.3522,-6.3567,-6.3585,-6.3616,-6.3659,-6.3715,-6.3751,-6.3804,-6.3897,-6.3907,-6.3938,-6.3947,-6.3955,-6.3962,-6.4012,-6.4026,-6.3883,-6.3882,-6.3882,0,0,-6.3279,-6.3319,-6.3354,-6.3435,-6.3469,-6.3528,-6.3497,-6.356,-6.3603,-6.3594,-6.3672,-6.3698,-6.3747,-6.3834,-6.3875,-6.3857,-6.4005,-6.3963,-6.3969,-6.3972,-6.402,-6.4034,-6.4046,-6.3887,-6.3886,-6.3886,0,0,-6.3368,-6.3405,-6.3472,-6.3508,-6.3562,-6.3582,-6.3598,-6.365,-6.3666,-6.3747,-6.3741,-6.3792,-6.3888,-6.3923,-6.3953,-6.4059,-6.4049,-6.4076,-6.4123,-6.4172,-6.4183,-6.4193,-6.4228,-6.4241,-6.4085,-6.4085,-6.4085,0,-6.34,-6.349,-6.3507,-6.3571,-6.3606,-6.3604,-6.3672,-6.3706,-6.3773,-6.3797,-6.3778,-6.3899,-6.3932,-6.4027,-6.4053,-6.4078,-6.4096,-6.4068,-6.418,-6.4191,-6.42,-6.4234,-6.4247,-6.4087,-6.4087,-6.4087,-6.4086,0,-6.3527,-6.3589,-6.3637,-6.3704,-6.3745,-6.3811,-6.3837,-6.3877,-6.3881,-6.3903,-6.3984,-6.4025,-6.4086,-6.411,-6.4114,-6.4206,-6.4193,-6.4178,-6.414,-6.4216,-6.4248,-6.4261,-6.4091,-6.409,-6.4089,-6.4089,0,0,-6.3627,-6.3705,-6.3722,-6.3753,-6.3813,-6.3861,-6.3927,-6.3989,-6.4022,-6.407,-6.4124,-6.4207,-6.4193,-6.4228,-6.4237,-6.428,-6.4358,-6.4258,-6.426,-6.4273,-6.4459,-6.4468,-6.4483,-6.4355,-6.4357,-6.4359,-6.4454,0,-6.3719,-6.3836,-6.3854,-6.3957,-6.4014,-6.4014,-6.4071,-6.4114,-6.4137,-6.4188,-6.4213,-6.427,-6.4249,-6.427,-6.4313,-6.4339,-6.4395,-6.4333,-6.4402,-6.4404,-6.4386,-6.45,-6.4509,-6.4597,-6.4467,-6.4469,-6.4471,0,-6.384,-6.3893,-6.4002,-6.4055,-6.408,-6.4131,-6.4189,-6.4239,-6.4288,-6.4301,-6.4342,-6.4346,-6.4413,-6.4377,-6.4469,-6.4427,-6.4457,-6.4475,-6.4479,-6.4482,-6.4439,-6.4503,-6.4625,-6.4637,-6.4491,-6.4489,-6.4488,0,-6.3899,-6.3998,-6.4075,-6.4102,-6.4167,-6.4203,-6.4231,-6.4278,-6.4314,-6.4366,-6.4389,-6.4447,-6.4478,-6.4523,-6.4543,-6.4515,-6.4633,-6.4599,-6.4644,-6.4643,-6.4665,-6.4662,-6.479,-6.4691,-6.4691,-6.4691,-6.469,0,-6.3997,-6.4062,-6.4102,-6.4149,-6.4223,-6.4244,-6.4316,-6.4344,-6.4386,-6.4438,-6.4443,-6.4491,-6.4516,-6.4568,-6.4584,-6.4657,-6.4672,-6.4683,-6.4686,-6.468,-6.4678,-6.4697,-6.469,-6.4694,-6.4693,-6.4693,-6.4692,0,-6.4072,-6.4102,-6.4186,-6.4242,-6.4258,-6.431,-6.4357,-6.4402,-6.4427,-6.4492,-6.4509,-6.4546,-6.4608,-6.4633,-6.4709,-6.472,-6.4802,-6.4802,-6.4786,-6.4785,-6.4828,-6.4823,-6.4969,-6.4988,-6.488,-6.4881,-6.4882,0,-6.4131,-6.4182,-6.4244,-6.428,-6.431,-6.4368,-6.4405,-6.4429,-6.4468,-6.4529,-6.4567,-6.4629,-6.4679,-6.4778,-6.4811,-6.4869,-6.4868,-6.4916,-6.4876,-6.4869,-6.4865,-6.486,-6.4864,-6.4921,-6.4922,-6.4923,-6.4924,0,-6.4231,-6.4243,-6.4298,-6.4359,-6.4404,-6.4452,-6.4499,-6.4528,-6.456,-6.4603,-6.4667,-6.4707,-6.4785,-6.4846,-6.4906,-6.4934,-6.4933,-6.4937,-6.495,-6.4942,-6.4929,-6.4934,-6.4801,-6.4932,-6.4931,-6.493,-6.493,-6.493,-6.4297,-6.4342,-6.4393,-6.4454,-6.4493,-6.4537,-6.4583,-6.4614,-6.4668,-6.4734,-6.4746,-6.4813,-6.4862,-6.4943,-6.4975,-6.5027,-6.5015,-6.5034,-6.5038,-6.5042,-6.5043,-6.4925,-6.5039,-6.5039,-6.5038,-6.5038,-6.5038,0,-6.4394,-6.4428,-6.4484,-6.4551,-6.4599,-6.4598,-6.4651,-6.469,-6.475,-6.4797,-6.4847,-6.4921,-6.4981,-6.502,-6.508,-6.5115,-6.5116,-6.5129,-6.5125,-6.5131,-6.5052,-6.5033,-6.5127,-6.5127,-6.5127,-6.5127,-6.5127,-6.5127,-6.445,-6.4525,-6.4545,-6.4639,-6.4673,-6.474,-6.477,-6.4811,-6.4848,-6.493,-6.4981,-6.5007,-6.505,-6.5114,-6.5169,-6.5179,-6.5199,-6.5213,-6.5222,-6.5146,-6.5137,-6.5128,-6.511,-6.5219,-6.5219,-6.5296,-6.5297,-6.5297]},{"header":{"parameterUnit":"m.s-1","parameterCategory":1,"la1":30.2991,"la2":30.254,"lo1":-89.0895,"lo2":-89.0444,"dy":0.0017,"dx":0.0017,"nx":28,"ny":28,"refTime":"2024-04-08T03:00:00:Z","depth":0,"parameterNumber":3,"parameterNumberName":"V-component_of_WINDS"},"data":[0,0,0,0,0,0,0,0,0,0,0,0,0,0,0,0,0,0,0,0,0,0,0,0,0,0,0,0,0,0,0,0,0,0,0,0,0,0,0,0,0,0,0,0,0,0,0,0,0,0,0,0,0,0,0,0,0,0,5.0306,5.0307,0,5.0356,5.0356,5.0357,5.0341,5.034,5.0339,5.0338,5.0384,5.0386,5.0388,0,0,0,0,0,0,0,0,0,0,0,0,0,5.0196,5.0198,5.0306,5.0307,5.0307,5.0356,5.0356,5.0357,5.0341,5.034,5.0338,5.0337,5.0383,5.0386,5.0388,0,0,0,0,0,0,0,0,0,0,0,0,0,5.0244,5.0199,5.0306,5.0305,5.0306,5.0355,5.0356,5.0357,5.0341,5.034,5.0338,5.0337,5.0382,5.0385,5.0389,5.044,0,0,5.0399,5.04,0,0,0,0,0,0,0,0,5.0241,5.0248,5.0305,5.0306,5.0306,5.0341,5.0334,5.0385,5.0342,5.0328,5.0338,5.0336,5.037,5.0375,5.0387,5.0443,5.0445,5.0399,5.0401,5.0402,5.0403,0,0,0,0,0,0,0,5.0238,5.0246,5.0326,5.0306,5.0307,5.0302,5.0307,5.0344,5.0357,5.0329,5.0328,5.0334,5.037,5.0384,5.0388,5.0445,5.0399,5.0402,5.0404,5.0405,5.0548,5.055,0,0,0,0,0,0,5.0235,5.0243,5.0324,5.0327,5.0269,5.0305,5.0311,5.0331,5.0357,5.0359,5.0335,5.0333,5.0379,5.0384,5.039,5.0453,5.0402,5.0406,5.0407,5.0546,5.0548,5.055,0,0,0,0,0,0,5.0233,5.0242,5.0322,5.0285,5.0295,5.0309,5.0331,5.0333,5.0346,5.0362,5.0364,5.0347,5.0378,5.0385,5.0429,5.0455,5.0407,5.041,5.0544,5.0547,5.0549,5.058,0,0,0,0,0,0,5.0229,5.0241,5.0262,5.0286,5.0297,5.0361,5.0333,5.0335,5.0353,5.035,5.0373,5.0375,5.0377,5.0424,5.0432,5.0458,5.0413,5.0542,5.0545,5.0549,5.0577,5.0584,5.059,0,0,0,0,0,5.0226,5.0267,5.0263,5.0272,5.0323,5.0363,5.0369,5.0372,5.0355,5.0375,5.0385,5.0375,5.0451,5.0429,5.0438,5.0465,5.054,5.0544,5.0548,5.0574,5.0583,5.0589,0,0,0,0,0,0,5.0243,5.027,5.0265,5.0316,5.0338,5.036,5.0385,5.038,5.0405,5.0402,5.0403,5.0408,5.0454,5.0464,5.0439,5.0518,5.0493,5.0499,5.051,5.0517,5.0524,5.052,5.0415,0,0,0,0,0,5.0253,5.0285,5.0306,5.0348,5.036,5.0371,5.0388,5.0389,5.0411,5.0419,5.0432,5.0453,5.0481,5.05,5.0527,5.0579,5.0584,5.0603,5.0609,5.0614,5.0619,5.0649,5.0657,5.0564,5.0564,5.0564,0,0,5.0273,5.0292,5.0311,5.0352,5.0369,5.0401,5.0378,5.0412,5.0436,5.0424,5.0467,5.0477,5.05,5.0549,5.0571,5.0559,5.0646,5.0619,5.0623,5.0625,5.0654,5.0663,5.0671,5.0567,5.0566,5.0566,0,0,5.0327,5.0344,5.0382,5.0401,5.0427,5.0435,5.0444,5.0469,5.0476,5.052,5.0512,5.0539,5.0588,5.0606,5.0621,5.0685,5.0676,5.0694,5.0726,5.0755,5.0762,5.0769,5.0792,5.0801,5.0699,5.0699,5.0699,0,5.0348,5.0397,5.0402,5.0439,5.0457,5.045,5.0489,5.0506,5.0539,5.0552,5.0538,5.0602,5.0616,5.067,5.0686,5.0698,5.0709,5.069,5.0761,5.0768,5.0774,5.0796,5.0805,5.0701,5.07,5.07,5.07,0,5.0423,5.0458,5.0485,5.0521,5.0542,5.0579,5.059,5.0611,5.0611,5.062,5.0665,5.0683,5.0715,5.0728,5.0726,5.0782,5.0774,5.0761,5.0735,5.0785,5.0806,5.0815,5.0704,5.0703,5.0702,5.0702,0,0,5.0487,5.0527,5.0537,5.0554,5.0585,5.0611,5.0648,5.0681,5.07,5.0724,5.0755,5.0799,5.0788,5.0805,5.0806,5.0832,5.0883,5.0816,5.0816,5.0828,5.0946,5.0956,5.0966,5.0878,5.088,5.0881,5.0945,0,5.0543,5.0611,5.0618,5.0678,5.0711,5.0706,5.0739,5.076,5.0771,5.0799,5.081,5.0841,5.0824,5.0835,5.086,5.0871,5.0907,5.0867,5.0907,5.0908,5.0901,5.0977,5.0987,5.1046,5.0953,5.0954,5.0955,0,5.0618,5.0648,5.0712,5.074,5.0754,5.0783,5.0816,5.0843,5.0868,5.0874,5.0895,5.0894,5.0932,5.0906,5.0959,5.0932,5.0949,5.0958,5.096,5.0963,5.0934,5.0982,5.1064,5.1073,5.0968,5.0967,5.0966,0,5.0659,5.0715,5.0761,5.0775,5.0809,5.083,5.0845,5.0869,5.089,5.0917,5.0931,5.0962,5.0979,5.1003,5.101,5.099,5.1063,5.1037,5.1069,5.1069,5.1083,5.1082,5.1169,5.1094,5.1094,5.1094,5.1094,0,5.0722,5.0762,5.078,5.0808,5.0853,5.0861,5.0904,5.0918,5.094,5.0971,5.0968,5.0996,5.1004,5.1033,5.1039,5.1083,5.109,5.1096,5.1097,5.1096,5.1095,5.1107,5.1103,5.1096,5.1096,5.1095,5.1095,0,5.0775,5.0789,5.0839,5.0869,5.0877,5.0909,5.0934,5.0961,5.0972,5.1011,5.102,5.1037,5.1072,5.1082,5.1123,5.1127,5.1179,5.1176,5.1171,5.1171,5.1202,5.1199,5.1299,5.1313,5.1229,5.123,5.123,0,5.0814,5.0845,5.0879,5.0901,5.0917,5.0951,5.0973,5.0982,5.1005,5.1038,5.1061,5.1097,5.1125,5.1182,5.1197,5.1229,5.1227,5.126,5.1231,5.1231,5.1228,5.1226,5.123,5.1265,5.1266,5.1267,5.1267,0,5.0882,5.0889,5.0921,5.0957,5.0984,5.1011,5.1038,5.1055,5.1068,5.1094,5.1131,5.1154,5.1198,5.1234,5.1267,5.1281,5.1277,5.1277,5.1285,5.1285,5.1281,5.1285,5.1186,5.1274,5.1273,5.1273,5.1272,5.1272,5.093,5.0958,5.0988,5.1024,5.1046,5.1072,5.11,5.1116,5.1148,5.1186,5.1189,5.123,5.1256,5.1301,5.1317,5.1348,5.1338,5.1351,5.1354,5.1358,5.1361,5.1277,5.1354,5.1354,5.1354,5.1354,5.1354,0,5.0999,5.1018,5.1052,5.1092,5.1121,5.1116,5.1146,5.1171,5.1207,5.1233,5.1263,5.1306,5.1341,5.136,5.1395,5.1417,5.1416,5.1426,5.1424,5.1428,5.1367,5.1356,5.1426,5.1426,5.1426,5.1426,5.1426,5.1426,5.1038,5.1086,5.1096,5.1156,5.1174,5.1216,5.1234,5.1258,5.1279,5.1329,5.1359,5.1372,5.1395,5.1432,5.1464,5.1468,5.1481,5.1493,5.1496,5.1439,5.1432,5.1425,5.1414,5.1495,5.1496,5.1554,5.1555,5.1555]}]]